TimeEDT,TemperatureF,Dew PointF,Humidity,Sea Level PressureIn,VisibilityMPH,Wind Direction,Wind SpeedMPH,Gust SpeedMPH,PrecipitationIn,Events,Conditions,WindDirDegrees,DateUTC
12:51 AM,70.0,66.9,90,30.01,4.0,Calm,Calm,-,N/A,,Clear,0,2013-08-30 04:51:00
1:51 AM,69.1,66.0,90,30.00,7.0,SSW,4.6,-,N/A,,Clear,210,2013-08-30 05:51:00
2:51 AM,69.1,64.9,87,29.99,8.0,Calm,Calm,-,N/A,,Clear,0,2013-08-30 06:51:00
3:51 AM,69.1,64.9,87,29.99,8.0,Calm,Calm,-,N/A,,Clear,0,2013-08-30 07:51:00
4:51 AM,69.1,64.9,87,29.98,8.0,Calm,Calm,-,N/A,,Clear,0,2013-08-30 08:51:00
5:51 AM,68.0,64.0,87,29.97,10.0,South,6.9,-,N/A,,Clear,170,2013-08-30 09:51:00
6:51 AM,68.0,63.0,84,29.98,10.0,South,5.8,-,N/A,,Clear,170,2013-08-30 10:51:00
7:51 AM,70.0,64.0,81,29.98,10.0,South,6.9,-,N/A,,Clear,190,2013-08-30 11:51:00
8:51 AM,73.0,64.9,76,29.97,10.0,South,10.4,-,N/A,,Clear,180,2013-08-30 12:51:00
9:51 AM,78.1,66.0,66,29.97,10.0,SW,5.8,-,N/A,,Clear,230,2013-08-30 13:51:00
10:51 AM,81.0,66.9,62,29.96,10.0,WSW,6.9,-,N/A,,Clear,240,2013-08-30 14:51:00
11:51 AM,82.9,64.9,54,29.93,10.0,SW,11.5,-,N/A,,Clear,220,2013-08-30 15:51:00
12:51 PM,80.1,68.0,67,29.92,10.0,WNW,8.1,-,N/A,,Scattered Clouds,290,2013-08-30 16:51:00
1:51 PM,81.0,66.9,62,29.90,10.0,West,9.2,-,N/A,,Clear,280,2013-08-30 17:51:00
2:51 PM,79.0,68.0,69,29.90,10.0,West,6.9,-,N/A,,Clear,280,2013-08-30 18:51:00
3:51 PM,82.0,66.0,58,29.88,10.0,West,10.4,-,N/A,,Clear,260,2013-08-30 19:51:00
4:51 PM,82.0,64.0,54,29.84,10.0,WSW,6.9,-,N/A,,Clear,240,2013-08-30 20:51:00
5:51 PM,82.0,64.9,56,29.83,10.0,West,6.9,-,N/A,,Clear,280,2013-08-30 21:51:00
6:51 PM,80.1,64.0,58,29.81,10.0,WSW,5.8,-,N/A,,Clear,240,2013-08-30 22:51:00
7:51 PM,77.0,66.0,69,29.82,9.0,SW,3.5,-,N/A,,Clear,220,2013-08-30 23:51:00
8:51 PM,75.9,66.0,71,29.82,10.0,SW,3.5,-,N/A,,Clear,220,2013-08-31 00:51:00
9:51 PM,75.0,66.9,76,29.79,9.0,SSW,4.6,-,N/A,,Clear,210,2013-08-31 01:51:00
10:51 PM,75.0,66.9,76,29.79,8.0,South,5.8,-,N/A,,Clear,190,2013-08-31 02:51:00
11:51 PM,77.0,66.9,71,29.79,9.0,SSW,5.8,-,N/A,Thunderstorm,Partly Cloudy,210,2013-08-31 03:51:00